Live aus Altenrhein
LIVE
LSZR 260520Z VRB01KT 9999 FEW070 10/09 Q1021 NOSIG RMK B
Zeitraffer heute
2017-09-26 00:14:56
LSZR 252150Z AUTO 11004KT 060V120 9999 NSC 11/09 Q1020
Zeitraffer gestern
2017-09-25 00:14:56
LSZR 242150Z AUTO VRB02KT 8000 -RA SCT050 OVC070 13/11 Q1021
Zeitraffer vor 3 Tagen
2017-09-23 00:14:57
LSZR 222150Z AUTO VRB02KT 9999 NCD 11/10 Q1022